Lapse_Rate
9.2 9.4 9.4 9.6 9.6 9.6 9.5 9.4 9.2 8.4 8.9 9.7 9.8 9.9 10.5 10.7 10.8 9.8 9.9 9.9 9.7 9.7 9.6 9.6 9.1 8.4 7.8 7.5 8.7 8.5 7.5 7.2 6.8 6.8 6.3 7.3 6.4 6.8
9.6 9.4 9.5 9.6 9.6 9.7 9.6 9.6 9.5 9.4 8.8 10.1 10.4 9.9 10.3 11.1 10.2 9.9 10.3 9.8 9.8 9.7 9.7 9.5 9.6 9.4 8.3 7.3 7.3 7.7 7.6 7.4 6.9 7.0 7.2 7.2 6.6 6.2
9.6 9.5 9.4 9.6 9.6 9.6 9.7 9.7 9.3 9.5 9.1 9.9 10.2 10.3 9.9 10.3 10.4 10.2 10.6 10.4 10.8 9.7 9.7 9.6 9.6 9.2 8.1 8.1 7.8 8.0 8.0 7.5 7.3 7.1 7.0 7.1 7.3 7.1
9.4 9.4 9.4 9.8 9.4 9.5 9.8 9.3 9.6 9.6 9.0 9.0 9.6 10.1 9.6 9.8 10.3 10.0 10.6 10.4 10.7 10.2 9.7 9.7 9.6 9.5 9.1 8.4 8.3 8.0 7.3 6.8 6.6 6.3 6.7 6.4 6.6 6.8
9.6 9.4 9.5 9.5 9.4 9.6 9.6 9.8 9.9 9.7 9.2 9.1 9.2 10.0 9.9 10.2 9.7 9.6 9.8 10.3 10.6 9.7 9.7 9.6 9.5 9.3 9.2 8.6 8.2 8.0 7.9 6.6 6.3 6.4 6.2 6.0 5.8 6.2
9.7 9.6 9.7 9.6 9.4 9.5 9.6 9.3 9.6 9.2 9.4 9.2 9.2 9.4 9.8 9.8 10.0 9.8 9.7 10.2 9.9 10.0 9.7 9.5 9.4 9.0 9.3 9.2 8.5 8.1 7.3 7.2 7.0 6.4 6.2 5.7 5.1 5.5
9.7 9.7 9.7 9.6 9.5 9.7 9.9 9.5 9.1 9.1 9.3 9.1 9.0 9.1 9.4 9.5 9.3 9.7 9.2 9.5 9.4 9.7 9.1 9.7 9.7 9.7 9.3 8.9 7.7 6.9 7.6 7.9 7.3 6.6 6.3 5.8 4.9 4.9
9.4 9.6 9.7 9.5 9.5 9.5 9.4 9.3 9.4 8.9 8.1 8.1 8.7 9.2 9.1 9.3 9.9 9.4 9.1 8.9 7.9 9.0 9.1 9.3 9.1 8.7 9.4 9.5 8.1 8.0 7.9 8.2 7.9 7.6 6.6 5.7 4.3 4.1
9.5 9.5 9.6 9.8 9.6 9.5 9.5 9.4 9.2 8.9 9.1 9.1 9.2 9.4 9.3 9.6 9.6 8.8 8.6 8.6 8.9 9.5 9.0 8.0 8.9 8.5 9.1 9.3 9.1 8.5 7.6 7.2 7.8 7.6 7.1 5.3 4.3 4.0
9.6 9.5 9.5 9.4 9.6 9.8 9.9 8.9 8.5 9.3 9.7 10.3 10.0 9.7 9.1 9.6 9.7 9.3 8.8 8.5 8.6 8.7 8.7 7.4 8.8 8.4 8.6 6.7 6.4 7.6 7.9 7.4 7.1 6.7 6.0 4.7 3.9 3.4
9.6 9.6 9.4 9.5 9.5 9.5 8.0 7.7 8.9 9.5 9.7 9.6 9.4 9.4 9.5 9.5 9.2 8.5 7.9 8.1 8.0 8.6 8.6 7.6 8.2 7.5 7.5 7.1 6.9 7.9 6.9 5.5 4.7 4.7 4.1 4.1 4.0 3.6
9.4 9.4 9.5 9.7 9.4 9.1 8.9 9.7 8.4 9.4 9.6 9.4 9.9 9.6 9.5 9.5 9.2 8.9 8.0 7.8 7.9 7.9 8.4 7.4 8.0 8.1 7.6 8.6 6.4 6.9 6.5 4.2 2.8 5.0 4.3 3.2 3.6 3.7
9.2 10.1 10.1 9.3 9.2 9.4 9.5 9.9 9.3 9.5 9.5 9.5 9.4 9.3 9.4 9.4 9.2 9.0 8.4 7.6 7.6 7.7 8.0 7.4 7.6 7.8 7.9 8.1 8.3 8.1 4.3 2.3 3.6 3.9 4.5 4.7 4.2 3.9
9.1 10.2 9.6 9.2 9.4 9.5 9.5 9.3 9.4 9.3 9.7 9.3 9.0 8.9 8.8 8.5 8.5 8.4 8.3 7.8 7.6 7.4 7.3 7.1 7.4 7.5 7.8 7.9 8.3 8.1 5.0 2.4 3.7 3.3 3.8 4.7 4.7 4.3
9.9 9.3 9.3 9.4 9.4 9.5 9.3 9.4 9.3 9.6 9.3 8.7 8.6 8.5 8.5 8.3 8.1 8.1 8.0 7.7 7.6 7.1 6.9 6.8 6.7 6.9 7.1 7.7 7.9 7.6 6.3 3.5 3.0 3.6 3.4 3.7 4.0 4.4
8.7 9.3 9.7 9.5 9.4 9.5 9.6 9.7 9.8 9.5 8.7 8.4 8.2 8.3 8.3 8.2 8.2 8.2 7.7 7.8 7.4 7.8 7.1 6.1 6.5 7.0 7.4 7.3 7.3 7.4 6.3 4.9 3.5 3.0 3.3 3.4 3.6 3.2
9.2 9.8 9.8 9.5 9.6 9.7 9.7 9.6 9.5 9.2 8.7 8.6 8.1 8.0 8.1 8.2 8.0 7.9 7.4 7.2 7.3 7.3 7.3 7.2 7.0 6.9 7.1 7.0 7.3 7.1 6.3 4.4 3.6 3.5 3.7 3.8 4.4 4.2
9.5 9.3 9.2 9.4 9.3 9.5 9.5 9.3 9.0 8.9 8.3 8.0 8.0 7.9 7.8 7.6 7.3 6.9 6.8 7.2 7.1 7.2 7.0 6.4 6.0 6.9 7.3 6.7 6.5 6.5 5.5 4.4 3.8 3.8 5.0 5.0 4.4 5.1
9.1 9.0 9.2 9.2 9.2 9.2 9.0 8.6 8.4 8.1 7.7 7.7 7.6 7.6 7.1 6.9 6.7 7.1 7.2 7.2 7.2 6.9 6.9 5.8 5.1 5.4 7.1 7.1 6.4 5.4 5.3 4.7 4.1 3.8 4.6 4.6 4.6 4.7
9.2 9.1 9.0 9.1 9.1 8.9 8.5 8.2 7.9 7.8 7.7 7.6 7.3 6.8 6.6 6.6 7.1 7.1 7.1 7.2 7.1 7.2 6.2 5.3 4.0 3.4 5.1 6.7 6.7 5.4 4.1 4.3 3.7 3.7 3.6 3.4 3.6 4.6
9.2 9.1 9.3 9.0 8.8 8.5 8.2 7.7 7.6 7.5 7.6 6.9 6.7 6.6 6.5 7.1 7.5 7.4 7.2 7.9 7.6 6.6 5.9 5.0 3.6 3.7 3.0 3.9 6.4 5.7 4.6 4.8 4.9 4.5 5.0 4.9 4.9 6.0
9.2 9.1 9.0 8.8 8.5 8.0 7.5 7.5 7.4 6.7 6.1 6.2 6.2 6.5 7.3 7.8 8.0 7.2 7.1 6.9 7.0 6.4 6.1 5.6 4.9 5.2 5.8 6.6 6.5 6.7 6.4 6.0 6.0 5.9 5.7 6.1 7.4 7.4
8.9 8.9 8.6 8.5 7.9 7.1 7.3 7.3 6.4 5.4 5.5 5.9 6.4 6.9 7.6 7.9 7.4 7.1 7.3 6.3 6.4 6.6 5.9 6.4 5.9 5.4 6.6 7.1 7.3 6.7 6.2 6.7 6.9 6.6 5.6 5.2 5.6 5.8
Wind_Speed
12 12 12 11 11 11 11 12 12 15 16 19 15 17 14 14 18 16 19 28 33 33 33 33 30 29 29 30 28 29 30 29 29 27 27 26 24 28
11 14 14 13 12 12 12 13 12 13 15 15 15 19 18 15 18 19 21 27 29 29 34 32 30 27 30 32 30 27 27 28 29 29 30 30 25 28
14 15 16 17 12 13 13 13 13 13 14 16 14 19 22 20 18 18 17 18 16 29 32 33 30 30 32 30 30 27 27 27 28 29 28 28 28 25
16 17 17 13 17 16 13 16 14 16 13 18 18 16 20 22 20 21 16 15 17 25 33 33 33 31 31 30 27 28 26 28 27 25 25 24 25 25
17 17 18 18 17 14 15 15 13 13 14 15 16 14 15 15 17 18 18 18 15 24 29 30 30 29 30 29 31 30 28 27 24 22 20 22 22 23
17 17 17 18 18 18 17 17 15 15 16 14 14 15 14 17 15 15 15 13 15 16 22 25 29 29 29 29 27 29 20 21 22 21 19 19 18 19
17 17 17 19 25 22 13 17 18 16 15 15 15 14 15 15 16 14 14 15 16 15 14 12 12 13 13 24 25 27 25 25 22 19 19 20 18 20
17 18 17 22 20 27 28 29 25 19 19 15 14 16 19 16 16 15 15 15 17 15 14 14 13 12 14 13 27 29 28 26 24 22 20 19 18 22
17 17 17 14 20 19 24 29 27 26 24 18 18 18 20 19 19 20 18 17 17 16 15 16 12 13 12 13 27 30 30 29 26 23 20 20 21 23
17 18 19 19 19 21 21 20 18 18 19 16 19 18 19 19 19 18 20 20 16 14 11 14 11 14 12 10 24 27 28 22 23 24 25 24 23 22
17 18 19 19 26 31 21 17 20 18 22 29 30 32 32 32 24 13 13 14 14 13 8 11 11 12 10 14 12 16 17 20 26 28 28 26 23 19
17 18 24 23 30 32 20 20 17 18 19 21 17 20 22 19 25 15 12 13 13 14 8 8 11 10 7 5 5 8 9 22 27 23 22 22 20 5
13 13 13 28 31 36 34 17 18 23 23 16 15 14 14 13 11 11 13 12 13 14 13 11 9 9 8 9 8 9 5 10 8 11 17 16 19 17
16 13 16 31 34 33 25 27 32 26 12 13 13 13 13 13 12 13 16 15 13 17 17 13 9 7 9 10 10 8 4 7 3 8 8 16 21 21
13 20 32 32 30 22 24 29 25 12 12 13 13 13 12 14 15 15 15 16 16 15 11 8 5 8 8 9 9 6 3 4 5 7 7 7 7 7
19 15 22 23 23 21 18 16 11 11 12 13 12 13 13 13 13 12 12 12 11 8 2 1 5 8 8 8 8 5 1 2 3 6 8 8 8 8
22 13 12 13 12 13 12 13 12 12 12 12 12 13 13 13 13 12 11 11 8 5 3 1 3 7 5 5 3 1 3 3 2 7 10 9 8 8
14 12 12 12 13 13 13 14 13 17 12 13 13 13 13 13 12 12 10 7 5 4 5 5 5 4 3 7 16 4 5 5 4 7 9 10 8 6
11 11 12 12 13 13 13 13 14 13 15 12 12 12 12 11 15 10 7 5 4 4 4 6 6 4 4 4 4 20 5 4 7 8 8 7 6 6
10 11 12 12 12 13 13 13 13 13 12 12 12 11 11 10 9 8 8 5 5 5 5 5 6 6 4 4 3 6 16 6 8 8 9 9 9 14
11 11 11 12 12 13 13 12 13 13 13 12 11 10 10 9 8 7 7 10 8 5 5 5 4 6 2 3 5 6 8 15 10 8 7 8 7 6
11 12 12 12 12 13 12 12 12 13 12 11 10 10 9 8 7 8 7 7 6 5 4 3 4 2 2 5 7 8 7 8 14 18 16 10 2 5
12 12 12 12 12 12 12 12 12 12 12 11 10 10 9 8 8 7 6 6 5 4 3 2 3 5 6 6 7 7 10 8 6 7 7 11 7 11
Wind_Direction
314 308 306 305 300 299 302 305 302 298 299 301 306 307 303 304 284 308 305 302 294 300 297 297 290 290 294 296 291 289 285 282 283 278 276 258 257 264
308 309 304 305 302 304 300 300 298 296 294 295 302 302 307 297 302 305 298 292 290 295 298 292 284 295 293 293 290 290 291 287 282 276 270 269 263 257
308 306 305 305 301 304 301 297 298 294 295 290 290 301 303 299 298 298 293 293 294 294 295 292 296 292 290 286 293 290 289 287 288 286 273 268 263 262
310 308 307 308 306 302 298 301 296 292 290 295 296 299 298 305 299 302 297 301 294 292 293 291 289 286 285 286 287 291 292 287 286 289 278 275 274 269
309 310 309 310 305 304 305 302 298 300 301 296 295 298 297 302 306 303 297 297 293 294 294 292 287 292 290 287 290 288 283 278 274 277 279 271 268 266
310 309 310 308 308 310 304 302 307 305 298 297 297 301 304 303 299 300 301 299 299 295 289 283 289 284 288 285 292 288 287 291 282 269 271 272 262 263
309 310 308 309 305 301 304 306 306 301 300 300 300 303 306 306 304 301 303 302 299 298 289 292 298 300 295 289 281 277 277 273 267 264 268 269 272 270
312 312 312 309 310 313 307 304 301 301 306 297 303 304 304 304 302 300 299 299 298 293 300 299 288 286 285 287 281 285 286 276 267 260 261 266 275 274
313 312 313 311 316 308 305 304 310 302 295 308 301 301 300 297 299 297 296 295 289 295 298 287 291 279 282 277 283 284 279 272 266 264 260 264 265 267
313 315 312 312 311 311 308 312 300 311 309 306 300 297 292 295 298 298 294 289 286 284 279 285 303 291 294 293 283 287 279 285 280 272 267 265 265 259
317 314 312 307 311 313 315 313 309 311 310 306 303 305 306 301 294 297 293 293 297 287 304 288 295 288 294 298 285 289 297 296 287 273 265 260 256 248
313 310 310 313 316 318 314 316 314 317 312 308 310 311 304 302 299 293 297 298 297 297 297 288 296 297 297 293 315 306 315 313 302 271 248 247 249 158
310 311 312 318 317 320 317 312 312 314 315 314 309 303 300 299 298 299 297 292 291 287 290 293 297 290 278 291 292 301 323 315 318 65 87 118 119 121
311 311 315 318 324 319 319 319 319 320 313 307 304 303 306 306 303 302 295 286 277 277 285 280 280 277 283 288 292 300 320 322 336 80 78 86 94 93
315 311 320 323 320 317 321 320 323 314 310 306 305 305 305 303 300 295 292 287 282 275 274 266 255 279 272 270 275 290 326 329 349 85 73 67 73 84
315 317 320 319 320 321 320 320 315 311 309 306 305 304 302 300 301 299 298 295 292 294 186 192 275 281 276 258 253 261 195 325 356 73 87 75 70 67
330 323 319 327 319 319 319 317 316 314 311 312 310 308 306 306 305 305 298 296 301 323 330 301 290 302 350 291 228 203 120 77 33 99 93 78 64 75
326 322 325 318 319 320 320 318 315 313 314 313 309 308 309 311 308 307 303 310 351 357 353 348 331 298 230 52 36 76 84 82 73 86 98 99 74 68
326 322 315 318 318 318 315 313 311 313 313 311 309 314 311 311 317 322 349 353 4 8 8 1 354 328 50 63 23 23 82 68 88 73 76 78 92 56
320 317 317 318 318 315 312 311 310 312 313 312 315 312 312 312 319 335 343 354 3 359 360 12 19 14 14 24 62 47 29 61 84 85 83 79 80 80
320 317 317 317 314 311 309 309 309 310 313 313 311 313 315 318 331 337 342 351 358 360 2 4 359 341 285 269 86 64 53 57 81 102 116 98 96 113
318 317 317 314 311 309 309 310 310 312 313 312 312 312 314 322 326 332 340 341 348 345 344 351 9 21 38 91 97 95 82 76 74 71 64 60 130 140
320 318 314 311 310 309 310 311 311 309 309 310 311 315 315 323 328 327 329 331 331 345 357 26 60 65 69 90 99 96 105 96 98 88 67 38 65 90